Torna al catalogo

SL-14 R/B

AttivoPO
NORAD 13553·ROCKET BODY·🇷🇺 Russia

Lanciato Sep 16, 1982 da Plesetsk Cosmodrome

Loading…

Prossimi Passaggi (prossime 24 ore)

TLE

AggiornatoSource: Space-Track

Epoca: Sep 14, 2026, 22:06 UTC

1 13553U 82092B   26257.92145729  .00000287  00000-0  29352-4 0  9991
2 13553  82.5698 324.3409 0021186  37.0381 141.5690 14.86802341357044

Traccia SL-14 R/B in tempo reale con AllMySat

Download on the App Store